Weather History for Cork, Ireland

Change the Weather History Date:

Tuesday, May 28, 2013

  Actual Average Record
Temperature  
Mean Temperature 49 °F -  
Max Temperature 56 °F 62 °F 65 °F (2014)
Min Temperature 42 °F 49 °F 39 °F (2000)
Degree Days  
Heating Degree Days 16    
Moisture  
Dew Point 43 °F    
Average Humidity 80    
Maximum Humidity 93    
Minimum Humidity 55    
Precipitation  
Precipitation 0.03 in 0.09 in - ()
Sea Level Pressure  
Sea Level Pressure 29.62 in    
Wind  
Wind Speed 11 mph ()    
Max Wind Speed 22 mph    
Max Gust Speed 32 mph    
Visibility 6.6 miles    
Events Rain    
Averages and records for this station are not official NWS values.
T = Trace of Precipitation, MM = Missing Value Source: Averaged Metar Reports

Daily Weather History Graph

Daily Weather History Graph

Search for Another Location

Airport:

Trip Planner

Search our weather history database for the weather conditions in past years. The results will help you decide how hot, cold, wet, or windy it might be!

Date:

Astronomy

May. 28, 2013 Rise Set
Actual Time 5:24 AM IST 9:39 PM IST
Civil Twilight 4:38 AM IST 10:24 PM IST
Nautical Twilight 3:32 AM IST 11:31 PM IST
Astronomical Twilight 2:03 AM IST 12:58 AM IST
Moon No Moon Rise 9:07 AM IST (5/28)
Length of Visible Light 17h 45m
Length of Day
16h 14m
Waning Gibbous, 85% of the Moon is Illuminated
May 28
Waning Gibbous
May 31
Last Quarter
Jun 8
New
Jun 16
First Quarter
Jun 23
Full

Hourly Weather History & Observations

Time (IST) Temp. Windchill Dew Point Humidity Pressure Visibility Wind Dir Wind Speed Gust Speed Precip Events Conditions
12:00 AM 44.6 °F 43.1 °F 41.0 °F 87% 29.56 in 6.2 mi West 3.5 mph - N/A   Scattered Clouds
12:30 AM 42.8 °F 39.3 °F 41.0 °F 93% 29.56 in 6.2 mi West 5.8 mph - N/A   Mostly Cloudy
1:00 AM 44 °F - 41 °F 85% 29.59 in 12 mi West 8.9 mph - -   Partly Cloudy
1:00 AM 44.6 °F 40.2 °F 41.0 °F 87% 29.56 in 6.2 mi West 8.1 mph - N/A   Mostly Cloudy
1:30 AM 44.6 °F 41.4 °F 41.0 °F 87% 29.56 in 6.2 mi West 5.8 mph - N/A   Mostly Cloudy
2:00 AM 44.6 °F 42.2 °F 42.8 °F 93% 29.56 in 6.2 mi West 4.6 mph - N/A   Mostly Cloudy
2:30 AM 42.8 °F 38.6 °F 41.0 °F 93% 29.56 in 6.2 mi WSW 6.9 mph - N/A   Mostly Cloudy
3:00 AM 44.6 °F 39.7 °F 41.0 °F 87% 29.56 in 6.2 mi West 9.2 mph - N/A   Scattered Clouds
3:30 AM 42.8 °F 38.6 °F 41.0 °F 93% 29.56 in 6.2 mi West 6.9 mph - N/A   Scattered Clouds
4:00 AM 42.8 °F 37.5 °F 41.0 °F 93% 29.56 in 6.2 mi West 9.2 mph - N/A   Scattered Clouds
4:30 AM 42.8 °F 38.0 °F 41.0 °F 93% 29.56 in 6.2 mi West 8.1 mph - N/A   Partly Cloudy
5:00 AM 44.6 °F 41.4 °F 41.0 °F 87% 29.56 in 6.2 mi West 5.8 mph - N/A   Mostly Cloudy
5:30 AM 42.8 °F 38.6 °F 41.0 °F 93% 29.56 in 6.2 mi West 6.9 mph - N/A   Mostly Cloudy
6:00 AM 44.6 °F 39.7 °F 41.0 °F 87% 29.56 in 6.2 mi West 9.2 mph - N/A   Scattered Clouds
6:30 AM 42.8 °F 37.0 °F 41.0 °F 93% 29.56 in 6.2 mi West 10.4 mph - N/A   Scattered Clouds
7:00 AM 45 °F - 42 °F 84% 29.59 in 25 mi West 11.2 mph - -   Partly Cloudy
7:00 AM 44.6 °F 38.8 °F 41.0 °F 87% 29.56 in 6.2 mi West 11.5 mph - N/A   Scattered Clouds
7:30 AM 46.4 °F 41.1 °F 42.8 °F 87% 29.56 in 6.2 mi West 11.5 mph - N/A   Partly Cloudy
8:00 AM 46.4 °F 40.7 °F 42.8 °F 87% 29.59 in 6.2 mi WNW 12.7 mph - N/A   Partly Cloudy
8:30 AM 50.0 °F - 44.6 °F 82% 29.59 in 6.2 mi WNW 15.0 mph - N/A   Scattered Clouds
9:00 AM 48.2 °F - 42.8 °F 82% 29.59 in 6.2 mi West 13.8 mph - N/A   Scattered Clouds
9:30 AM 50.0 °F - 42.8 °F 76% 29.59 in 6.2 mi WNW 12.7 mph - N/A   Scattered Clouds
10:00 AM 51.8 °F - 42.8 °F 71% 29.59 in 6.2 mi WNW 18.4 mph - N/A   Mostly Cloudy
10:30 AM 50.0 °F - 42.8 °F 76% 29.59 in 6.2 mi WNW 17.3 mph - N/A   Mostly Cloudy
11:00 AM 51.8 °F - 44.6 °F 76% 29.62 in 6.2 mi WNW 15.0 mph - N/A   Mostly Cloudy
11:30 AM 53.6 °F - 44.6 °F 72% 29.62 in 6.2 mi NW 16.1 mph - N/A   Mostly Cloudy
12:00 PM 50.0 °F - 46.4 °F 87% 29.62 in 6.2 mi NW 16.1 mph - N/A Rain Light Rain Showers
12:30 PM 50.0 °F - 46.4 °F 87% 29.62 in 6.2 mi NNW 18.4 mph - N/A Rain Light Rain Showers
1:00 PM 51 °F - 44 °F 71% 29.65 in 19 mi NW 17.9 mph - - Rain Light Rain Showers
1:00 PM 50.0 °F - 44.6 °F 82% 29.62 in 6.2 mi NW 18.4 mph - N/A Rain Light Rain Showers
1:30 PM 51.8 °F - 46.4 °F 82% 29.62 in 6.2 mi NW 20.7 mph 32.2 mph N/A Rain Light Rain Showers
2:00 PM 51.8 °F - 44.6 °F 76% 29.62 in 6.2 mi NW 17.3 mph - N/A   Scattered Clouds
2:30 PM 53.6 °F - 42.8 °F 67% 29.62 in 6.2 mi WNW 21.9 mph - N/A   Scattered Clouds
3:00 PM 55.4 °F - 42.8 °F 63% 29.62 in 6.2 mi WNW 20.7 mph 32.2 mph N/A   Partly Cloudy
3:30 PM 55.4 °F - 42.8 °F 63% 29.62 in 6.2 mi WNW 20.7 mph - N/A   Scattered Clouds
4:00 PM 53.6 °F - 44.6 °F 72% 29.65 in 6.2 mi NW 19.6 mph 31.1 mph N/A   Mostly Cloudy
4:30 PM 51.8 °F - 44.6 °F 76% 29.65 in 6.2 mi WNW 12.7 mph - N/A   Mostly Cloudy
5:00 PM 53.6 °F - 42.8 °F 67% 29.65 in 6.2 mi NW 21.9 mph - N/A   Scattered Clouds
5:30 PM 55.4 °F - 42.8 °F 63% 29.65 in 6.2 mi NW 20.7 mph - N/A   Scattered Clouds
6:00 PM 55.4 °F - 44.6 °F 67% 29.65 in 6.2 mi NW 21.9 mph - N/A   Scattered Clouds
6:30 PM 53.6 °F - 42.8 °F 67% 29.65 in 6.2 mi NW 21.9 mph - N/A   Scattered Clouds
7:00 PM 55 °F - 44 °F 55% 29.67 in 25 mi NW 22.4 mph - -   Partly Cloudy
7:00 PM 55.4 °F - 42.8 °F 63% 29.65 in 6.2 mi NW 21.9 mph - N/A   Mostly Cloudy
7:30 PM 51.8 °F - 42.8 °F 71% 29.68 in 6.2 mi NW 16.1 mph - N/A   Scattered Clouds
8:00 PM 51.8 °F - 44.6 °F 76% 29.68 in 6.2 mi NW 18.4 mph - N/A   Mostly Cloudy
8:30 PM 51.8 °F - 44.6 °F 76% 29.68 in 6.2 mi NW 16.1 mph - N/A   Mostly Cloudy
9:00 PM 50.0 °F - 44.6 °F 82% 29.68 in 6.2 mi NW 17.3 mph - N/A   Mostly Cloudy
9:30 PM 50.0 °F - 44.6 °F 82% 29.68 in 6.2 mi NW 15.0 mph - N/A   Scattered Clouds
10:00 PM 48.2 °F - 44.6 °F 87% 29.71 in 6.2 mi NW 15.0 mph - N/A   Scattered Clouds
10:30 PM 48.2 °F - 44.6 °F 87% 29.71 in 6.2 mi NW 15.0 mph - N/A   Scattered Clouds
11:00 PM 48.2 °F - 44.6 °F 87% 29.71 in 6.2 mi NW 15.0 mph - N/A   Scattered Clouds
11:30 PM 48.2 °F - 44.6 °F 87% 29.71 in 6.2 mi NW 15.0 mph - N/A   Scattered Clouds